Location: Ambatotampy
(18.8181°S, 47.6186°E)
Time: 23:44:21
(UTC+00:00)

Cosmos 1470 - Pass Details

Date: 21 January 2021
Orbit: 522 x 541 km, 82.5° (Epoch: 24 February)

Event Time Altitude Azimuth Distance (km) Brightness Sun altitude
Rises 01:22:35 0° 195° (SSW) 2,700 6.5 -15.1°
Reaches altitude 10° 01:24:50 10° 202° (SSW) 1,798 5.5 -14.6°
Maximum altitude 01:28:34 41° 272° (W) 778 3.1 -13.8°
Enters shadow 01:32:06 11° 343° (NNW) 1,715 4.9 -13.1°
